TimeCDT,TemperatureF,Dew PointF,Humidity,Sea Level PressureIn,VisibilityMPH,Wind Direction,Wind SpeedMPH,Gust SpeedMPH,PrecipitationIn,Events,Conditions,WindDirDegrees,DateUTC
12:15 AM,66.0,61.0,84,30.01,10.0,Calm,Calm,-,N/A,,Clear,0,2013-06-19 05:15:00
12:35 AM,64.8,60.4,86,30.01,10.0,Calm,Calm,-,N/A,,Clear,0,2013-06-19 05:35:00
12:55 AM,66.2,61.7,85,30.01,10.0,East,3.5,-,N/A,,Clear,90,2013-06-19 05:55:00
1:15 AM,64.2,60.4,87,30.00,10.0,Calm,Calm,-,N/A,,Clear,0,2013-06-19 06:15:00
1:35 AM,64.8,61.5,89,30.00,10.0,Calm,Calm,-,N/A,,Clear,0,2013-06-19 06:35:00
1:55 AM,64.6,61.2,89,30.00,10.0,Calm,Calm,-,N/A,,Clear,0,2013-06-19 06:55:00
2:15 AM,64.0,60.4,88,29.99,10.0,SE,3.5,-,N/A,,Clear,130,2013-06-19 07:15:00
2:35 AM,65.3,61.2,86,29.99,10.0,SE,3.5,-,N/A,,Clear,140,2013-06-19 07:35:00
2:55 AM,65.5,61.2,86,29.99,10.0,SE,5.8,-,N/A,,Clear,140,2013-06-19 07:55:00
3:15 AM,65.7,61.3,86,29.98,10.0,SE,5.8,-,N/A,,Clear,140,2013-06-19 08:15:00
3:35 AM,66.2,61.7,85,29.98,10.0,SSE,8.1,-,N/A,,Clear,150,2013-06-19 08:35:00
3:55 AM,65.8,61.3,85,29.97,10.0,SSE,6.9,-,N/A,,Clear,150,2013-06-19 08:55:00
4:15 AM,65.7,61.3,86,29.97,10.0,SSE,4.6,-,N/A,,Clear,150,2013-06-19 09:15:00
4:35 AM,65.5,61.3,86,29.98,10.0,Calm,Calm,-,N/A,,Clear,0,2013-06-19 09:35:00
4:55 AM,64.8,61.2,88,29.98,10.0,SE,4.6,-,N/A,,Clear,130,2013-06-19 09:55:00
5:15 AM,64.8,61.3,89,29.97,10.0,Calm,Calm,-,N/A,,Clear,0,2013-06-19 10:15:00
5:35 AM,64.6,61.0,88,29.99,10.0,Calm,Calm,-,N/A,,Clear,0,2013-06-19 10:35:00
5:55 AM,63.5,60.1,89,29.99,10.0,Calm,Calm,-,N/A,,Clear,0,2013-06-19 10:55:00
6:15 AM,63.5,60.6,90,30.00,10.0,Calm,Calm,-,N/A,,Clear,0,2013-06-19 11:15:00
6:35 AM,63.3,60.4,90,30.00,10.0,Calm,Calm,-,N/A,,Clear,0,2013-06-19 11:35:00
6:55 AM,64.8,61.7,90,30.00,10.0,Calm,Calm,-,N/A,,Scattered Clouds,0,2013-06-19 11:55:00
7:15 AM,65.7,61.7,87,29.99,10.0,Calm,Calm,-,N/A,,Clear,0,2013-06-19 12:15:00
7:35 AM,67.5,62.6,84,29.99,10.0,SSE,3.5,-,N/A,,Clear,150,2013-06-19 12:35:00
7:55 AM,69.4,63.0,80,29.99,10.0,SSE,5.8,-,N/A,,Clear,150,2013-06-19 12:55:00
8:15 AM,70.7,63.0,76,29.99,10.0,South,5.8,-,N/A,,Clear,170,2013-06-19 13:15:00
8:35 AM,72.5,63.0,72,29.99,10.0,South,4.6,-,N/A,,Clear,180,2013-06-19 13:35:00
8:55 AM,74.5,62.8,67,29.99,10.0,SSE,9.2,-,N/A,,Clear,160,2013-06-19 13:55:00
9:15 AM,75.0,62.8,66,30.00,10.0,SSE,9.2,-,N/A,,Clear,150,2013-06-19 14:15:00
9:35 AM,76.5,62.4,62,30.00,10.0,SSE,11.5,-,N/A,,Clear,160,2013-06-19 14:35:00
9:55 AM,76.6,62.4,61,30.00,10.0,South,10.4,-,N/A,,Clear,170,2013-06-19 14:55:00
10:15 AM,78.1,62.4,58,29.99,10.0,South,11.5,-,N/A,,Clear,190,2013-06-19 15:15:00
10:35 AM,79.5,62.6,56,29.99,10.0,South,10.4,-,N/A,,Clear,170,2013-06-19 15:35:00
10:55 AM,80.6,63.0,55,29.99,10.0,SSE,10.4,-,N/A,,Scattered Clouds,160,2013-06-19 15:55:00
11:15 AM,81.5,62.4,52,29.99,10.0,South,12.7,16.1,N/A,,Clear,170,2013-06-19 16:15:00
11:35 AM,82.0,63.0,52,29.98,10.0,SSE,11.5,-,N/A,,Scattered Clouds,160,2013-06-19 16:35:00
11:55 AM,83.5,61.3,47,29.97,10.0,SSE,10.4,-,N/A,,Clear,150,2013-06-19 16:55:00
12:15 PM,84.4,61.3,46,29.97,10.0,South,13.8,18.4,N/A,,Scattered Clouds,170,2013-06-19 17:15:00
12:35 PM,85.6,62.8,46,29.96,10.0,SSE,15.0,19.6,N/A,,Scattered Clouds,150,2013-06-19 17:35:00
12:55 PM,85.5,62.8,46,29.96,10.0,South,12.7,21.9,N/A,,Scattered Clouds,180,2013-06-19 17:55:00
1:15 PM,87.1,63.3,45,29.96,10.0,SSE,13.8,17.3,N/A,,Scattered Clouds,160,2013-06-19 18:15:00
1:35 PM,86.5,61.2,42,29.95,10.0,South,16.1,20.7,N/A,,Scattered Clouds,190,2013-06-19 18:35:00
1:55 PM,87.4,59.9,39,29.95,10.0,South,17.3,21.9,N/A,,Clear,180,2013-06-19 18:55:00
2:35 PM,86.7,58.3,38,29.94,10.0,South,17.3,24.2,N/A,,Scattered Clouds,170,2013-06-19 19:35:00
2:55 PM,87.4,58.3,37,29.94,10.0,SSE,17.3,-,N/A,,Scattered Clouds,160,2013-06-19 19:55:00
3:15 PM,89.1,57.0,34,29.93,10.0,South,16.1,25.3,N/A,,Scattered Clouds,180,2013-06-19 20:15:00
3:35 PM,87.6,56.3,34,29.93,10.0,South,17.3,21.9,N/A,,Scattered Clouds,170,2013-06-19 20:35:00
3:55 PM,89.6,55.6,31,29.93,10.0,SSE,17.3,24.2,N/A,,Scattered Clouds,150,2013-06-19 20:55:00
4:15 PM,89.6,50.2,26,29.93,10.0,South,12.7,23.0,N/A,,Clear,180,2013-06-19 21:15:00
4:35 PM,90.0,53.6,29,29.92,10.0,SSE,19.6,28.8,N/A,,Scattered Clouds,150,2013-06-19 21:35:00
4:55 PM,88.5,57.2,34,29.92,10.0,SSE,16.1,23.0,N/A,,Scattered Clouds,160,2013-06-19 21:55:00
5:15 PM,88.7,58.8,36,29.91,10.0,SSE,17.3,-,N/A,,Scattered Clouds,150,2013-06-19 22:15:00
5:35 PM,88.2,56.5,34,29.90,10.0,South,17.3,25.3,N/A,,Scattered Clouds,170,2013-06-19 22:35:00
5:55 PM,88.7,54.9,32,29.90,10.0,South,17.3,21.9,N/A,,Scattered Clouds,170,2013-06-19 22:55:00
6:15 PM,88.5,54.9,32,29.89,10.0,SSE,18.4,21.9,N/A,,Scattered Clouds,160,2013-06-19 23:15:00
6:35 PM,88.2,56.7,34,29.89,10.0,SSE,17.3,23.0,N/A,,Scattered Clouds,150,2013-06-19 23:35:00
6:55 PM,86.7,58.8,39,29.89,10.0,SSE,15.0,21.9,N/A,,Scattered Clouds,160,2013-06-19 23:55:00
7:15 PM,86.2,57.4,37,29.89,10.0,South,16.1,21.9,N/A,,Clear,170,2013-06-20 00:15:00
7:35 PM,85.8,56.1,36,29.89,10.0,SSE,13.8,20.7,N/A,,Clear,160,2013-06-20 00:35:00
7:55 PM,84.9,55.2,36,29.89,10.0,SSE,10.4,18.4,N/A,,Clear,160,2013-06-20 00:55:00
8:15 PM,83.8,57.0,40,29.90,10.0,SSE,11.5,19.6,N/A,,Clear,150,2013-06-20 01:15:00
8:35 PM,82.6,56.7,41,29.90,10.0,SSE,11.5,-,N/A,,Clear,160,2013-06-20 01:35:00
8:55 PM,81.1,57.2,44,29.90,10.0,SSE,11.5,-,N/A,,Clear,160,2013-06-20 01:55:00
9:15 PM,80.2,58.1,47,29.90,10.0,SSE,10.4,-,N/A,,Clear,150,2013-06-20 02:15:00
9:35 PM,79.0,58.3,49,29.90,10.0,SSE,10.4,-,N/A,,Clear,150,2013-06-20 02:35:00
9:55 PM,78.4,59.2,51,29.91,10.0,SSE,10.4,16.1,N/A,,Clear,150,2013-06-20 02:55:00
10:15 PM,77.9,59.9,54,29.92,10.0,SSE,12.7,-,N/A,,Clear,150,2013-06-20 03:15:00
10:35 PM,77.9,60.3,54,29.93,10.0,SSE,12.7,19.6,N/A,,Clear,160,2013-06-20 03:35:00
10:55 PM,77.2,60.8,57,29.93,10.0,SSE,9.2,-,N/A,,Clear,150,2013-06-20 03:55:00
11:15 PM,77.0,61.3,58,29.93,10.0,SSE,11.5,-,N/A,,Clear,160,2013-06-20 04:15:00
11:35 PM,76.6,61.7,60,29.94,10.0,SSE,12.7,19.6,N/A,,Clear,160,2013-06-20 04:35:00
11:55 PM,76.5,61.7,60,29.94,10.0,SSE,13.8,-,N/A,,Clear,160,2013-06-20 04:55:00